This demonstration page uses our WeatherBlox Daily Observations layout. Learn more.

Left ArrowRight Arrow

40.92945, -100.16068

Hourly Observations for October 9, 2018

Temp ( °F °C ) Dew Point ( °F °C ) Humidity (%) Winds ( mph kmh ) Pressure ( in mb ) Visibility ( mi km ) Precip ( " mm )
12:15 am 00:15 Cloudy with Drizzle 44 6.6 42 5.5 93 93 NNW 7 11 30.09 1019 5 8.0467 0 0
12:35 am 00:35 Cloudy 44 6.5 42 5.5 93 93 NNW 7 11 30.06 1018 10 16.0934 0 0
12:55 am 00:55 Cloudy 44 6.5 42 5.3 92 92 NNW 8 13 30.06 1018 10 16.0934 0 0
1:15 am 01:15 Cloudy 44 6.5 41 5.2 92 92 NNW 8 13 30.06 1018 10 16.0934 0 0
1:35 am 01:35 Cloudy 44 6.5 41 5.2 92 92 N 7 11 30.06 1018 10 16.0934 0 0
1:55 am 01:55 Cloudy 43 6.3 41 5.2 93 93 N 7 11 30.06 1018 10 16.0934 0 0
2:15 am 02:15 Cloudy 43 6.3 41 5.2 93 93 N 6 9 30.06 1018 10 16.0934 0 0
2:35 am 02:35 Cloudy 43 6.3 41 5.1 92 92 N 6 9 30.06 1018 10 16.0934 0 0
2:55 am 02:55 Cloudy 43 6.3 41 5.1 92 92 N 7 11 30.06 1018 10 16.0934 0 0
3:15 am 03:15 Cloudy 43 6.3 41 5 91 91 NNW 7 11 30.06 1018 10 16.0934 0 0
3:35 am 03:35 Cloudy 43 6.3 41 5 91 91 N 8 13 30.03 1017 10 16.0934 0 0
3:55 am 03:55 Cloudy 43 6.3 41 5 91 91 NNW 8 13 30.03 1017 10 16.0934 0 0
4:15 am 04:15 Cloudy 43 6.3 41 4.8 90 90 N 9 15 30.03 1017 10 16.0934 0 0
4:35 am 04:35 Cloudy 43 6.3 40 4.7 90 90 N 10 17 30.03 1017 10 16.0934 0 0
4:55 am 04:55 Cloudy 43 6.3 40 4.7 90 90 N 8 13 30.03 1017 10 16.0934 0 0
5:15 am 05:15 Cloudy 43 6.3 40 4.6 89 89 N 8 13 30.03 1017 10 16.0934 0 0
5:35 am 05:35 Cloudy 43 6.3 40 4.6 89 89 N 9 15 30.03 1017 10 16.0934 0 0
5:55 am 05:55 Cloudy 43 6.2 40 4.5 89 89 N 12 19 30.03 1017 10 16.0934 0 0
6:15 am 06:15 Cloudy 43 6.2 40 4.5 89 89 N 10 17 30.03 1017 10 16.0934 0 0
6:35 am 06:35 Cloudy 43 6 40 4.4 90 90 N 15 24 30.03 1017 10 16.0934 0 0
6:55 am 06:55 Cloudy 43 6 40 4.3 89 89 N 14 22 30.03 1017 10 16.0934 0 0
7:15 am 07:15 Cloudy 43 6 39 4.1 88 88 N 14 22 30.03 1017 10 16.0934 0 0
7:35 am 07:35 Cloudy 42 5.7 40 4.2 90 90 N 15 24 30.03 1017 10 16.0934 0 0
7:55 am 07:55 Cloudy 42 5.7 39 4 89 89 N 15 24 30.03 1017 10 16.0934 0 0
8:15 am 08:15 Cloudy with Light Rain 42 5.5 38 3.6 88 88 N 13 20 30.03 1017 10 16.0934 0 0
8:35 am 08:35 Cloudy with Light Rain 42 5.5 39 3.7 88 88 N 13 20 30.03 1017 10 16.0934 0.02 0.508
8:55 am 08:55 Cloudy with Light Rain 42 5.3 39 4.1 92 92 N 14 22 30.03 1017 7 11.26538 0.04 1.016
9:15 am 09:15 Cloudy with Light Rain 42 5.3 39 4.1 92 92 N 15 24 30.03 1017 10 16.0934 0.02 0.508
9:35 am 09:35 Cloudy with Light Rain 42 5.3 39 4 91 91 NNE 17 28 30.03 1017 7 11.26538 0.04 1.016
9:55 am 09:55 Cloudy with Rain 41 5.2 39 3.8 91 91 N 14 22 30.03 1017 3 4.82802 0.08 2.032
10:15 am 10:15 Cloudy with Rain 41 5.2 39 3.8 91 91 NNE 14 22 30.03 1017 10 16.0934 0.02 0.508
10:35 am 10:35 Cloudy with Light Rain 41 5.2 39 3.8 91 91 NNE 12 19 30.03 1017 7 11.26538 0.05 1.27
10:55 am 10:55 Cloudy with Rain 41 5.2 39 3.9 91 91 N 10 17 30.03 1017 7 11.26538 0.08 2.032
11:15 am 11:15 Cloudy with Rain 42 5.3 39 4 91 91 NNE 12 19 30.03 1017 7 11.26538 0.03 0.762
11:35 am 11:35 Cloudy with Rain 42 5.4 39 4.1 91 91 N 12 19 30 1016 7 11.26538 0.07 1.778
11:55 am 11:55 Cloudy with Rain 42 5.5 39 4 90 90 N 15 24 29.97 1015 7 11.26538 0.09 2.286
12:15 pm 12:15 Cloudy with Rain 42 5.4 39 4 91 91 N 14 22 29.97 1015 7 11.26538 0.04 1.016
12:35 pm 12:35 Cloudy with Rain 42 5.5 39 4 90 90 N 13 20 29.97 1015 4 6.43736 0.1 2.54
12:55 pm 12:55 Cloudy with Rain 42 5.5 39 4 90 90 N 15 24 29.97 1015 7 11.26538 0.13 3.302
1:15 pm 13:15 Cloudy with Rain 42 5.5 39 4 90 90 N 15 24 29.94 1014 7 11.26538 0.03 0.762
1:35 pm 13:35 Cloudy with Rain 42 5.5 39 4 90 90 N 15 24 29.94 1014 5 8.0467 0.06 1.524
1:55 pm 13:55 Cloudy with Rain 42 5.5 39 4.1 91 91 N 14 22 29.88 1012 5 8.0467 0.09 2.286
2:15 pm 14:15 Cloudy with Rain 42 5.6 39 4.1 90 90 N 15 24 29.88 1012 5 8.0467 0.03 0.762
2:35 pm 14:35 Cloudy with Light Rain 42 5.5 39 4 90 90 N 16 26 29.88 1012 5 8.0467 0.08 2.032
2:55 pm 14:55 Cloudy with Heavy Rain 42 5.5 39 4 90 90 N 14 22 29.88 1012 3 4.82802 0.14 3.556
3:15 pm 15:15 Cloudy with Light Rain 42 5.5 39 4 90 90 N 16 26 29.85 1011 10 16.0934 0.03 0.762
3:35 pm 15:35 Cloudy with Light Rain 42 5.7 40 4.4 91 91 N 15 24 29.85 1011 5 8.0467 0.05 1.27
3:55 pm 15:55 Cloudy with Light Rain 42 5.6 39 4.1 90 90 N 18 30 29.85 1011 10 16.0934 0.05 1.27
4:15 pm 16:15 Cloudy with Drizzle 42 5.6 39 3.9 89 89 N 13 20 29.85 1011 10 16.0934 0.01 0.254
4:35 pm 16:35 Cloudy with Rain 42 5.6 39 4 90 90 N 18 30 29.85 1011 7 11.26538 0.01 0.254
4:55 pm 16:55 Cloudy with Drizzle 42 5.5 39 3.9 90 90 N 21 33 29.85 1011 7 11.26538 0.02 0.508
5:15 pm 17:15 Cloudy with Light Rain 42 5.5 39 3.8 89 89 N 18 30 29.83 1010 7 11.26538 0 0
5:35 pm 17:35 Cloudy with Drizzle 42 5.4 39 3.7 89 89 N 17 28 29.83 1010 5 8.0467 0 0
5:55 pm 17:55 Cloudy 42 5.3 38 3.6 89 89 NNW 17 28 29.85 1011 7 11.26538 0 0
6:15 pm 18:15 Cloudy 42 5.3 39 3.7 90 90 N 21 33 29.83 1010 7 11.26538 0 0
6:35 pm 18:35 Cloudy with Drizzle 41 5.2 38 3.5 89 89 N 14 22 29.85 1011 7 11.26538 0 0
6:55 pm 18:55 Cloudy with Drizzle 41 5 38 3.5 90 90 N 17 28 29.88 1012 4 6.43736 0.01 0.254
7:15 pm 19:15 Cloudy with Drizzle 41 4.8 38 3.5 91 91 NNW 15 24 29.88 1012 3 4.82802 0 0
7:35 pm 19:35 Cloudy with Mist and Fog 41 4.8 38 3.5 91 91 N 18 30 29.88 1012 5 8.0467 0 0
7:55 pm 19:55 Cloudy with Rain 41 4.8 38 3.5 91 91 N 16 26 29.88 1012 5 8.0467 0.01 0.254
8:15 pm 20:15 Cloudy with Rain 40 4.7 38 3.5 92 92 N 14 22 29.88 1012 5 8.0467 0.01 0.254
8:35 pm 20:35 Cloudy with Light Rain 40 4.7 38 3.5 92 92 NNW 14 22 29.88 1012 5 8.0467 0.02 0.508
8:55 pm 20:55 Cloudy with Drizzle 40 4.6 38 3.5 93 93 N 13 20 29.88 1012 5 8.0467 0.03 0.762
9:15 pm 21:15 Cloudy with Drizzle 40 4.6 38 3.4 92 92 NNW 18 30 29.88 1012 7 11.26538 0 0
9:35 pm 21:35 Cloudy 40 4.3 37 2.8 90 90 NNW 12 19 29.88 1012 10 16.0934 0 0
9:55 pm 21:55 Cloudy 39 4.1 36 2.3 88 88 NNW 16 26 29.88 1012 10 16.0934 0 0
10:15 pm 22:15 Cloudy 39 4.1 36 2.2 88 88 NNW 16 26 29.88 1012 10 16.0934 0 0
10:35 pm 22:35 Cloudy 39 4 36 2 87 87 NNW 14 22 29.88 1012 10 16.0934 0 0
10:55 pm 22:55 Cloudy 39 3.8 36 2 88 88 NNW 17 28 29.88 1012 10 16.0934 0 0
11:15 pm 23:15 Cloudy with Drizzle 39 3.7 36 2 89 89 NNW 16 26 29.88 1012 10 16.0934 0 0
11:35 pm 23:35 Cloudy 39 3.7 36 2 89 89 NNW 18 30 29.88 1012 10 16.0934 0 0
11:55 pm 23:55 Cloudy 39 3.7 36 2 89 89 NNW 13 20 29.88 1012 10 16.0934 0 0

Powered by AerisWeather